When you browse on this site, cookies collect data to enhance your experience and personalize the content and advertising you see.
Visit our Privacy Policy to learn more. By continuing to use the site, you agree to this use of cookies and data.
  • Em Portugal
  • Lista de países
  • Para 7 dias
  • Temperatura da água
  • Mapas de satélite
  • Mapa do tempo
  • Widgets de tempo
  • user-avatar
    Iniciar Sessão

    Previsão horária em Kotonu

    Hoje, 21 Maio, Terça-feira

    Tempo Temperatura Precipitação Vento Pressão Humidade
    00:00 +30°C° 0 mm 5 m/s 758 mmHg 78%
    01:00 +30°C° 0.1 mm 5 m/s 758 mmHg 78%
    02:00 +30°C° 0.1 mm 5 m/s 758 mmHg 79%
    03:00 +29°C° 0.1 mm 5 m/s 758 mmHg 79%
    04:00 +29°C° 0 mm 5 m/s 758 mmHg 79%
    05:00 +29°C° 0 mm 5 m/s 758 mmHg 80%
    06:00 +29°C° 0 mm 5 m/s 758 mmHg 80%
    07:00 +32°C° 0 mm 4 m/s 758 mmHg 73%
    08:00 +33°C° 0 mm 4 m/s 758 mmHg 67%
    09:00 +35°C° 0 mm 4 m/s 759 mmHg 60%
    10:00 +36°C° 0 mm 4 m/s 759 mmHg 57%
    11:00 +36°C° 0 mm 5 m/s 759 mmHg 55%
    12:00 +37°C° 0 mm 5 m/s 759 mmHg 52%
    13:00 +37°C° 0 mm 5 m/s 758 mmHg 54%
    14:00 +36°C° 0 mm 5 m/s 757 mmHg 56%
    15:00 +36°C° 0 mm 6 m/s 757 mmHg 58%
    16:00 +34°C° 2.5 mm 5 m/s 757 mmHg 66%
    17:00 +32°C° 2.5 mm 4 m/s 757 mmHg 74%
    18:00 +30°C° 2.5 mm 4 m/s 756 mmHg 83%
    19:00 +29°C° 0.3 mm 4 m/s 757 mmHg 82%
    20:00 +29°C° 0.3 mm 5 m/s 758 mmHg 82%
    21:00 +29°C° 0.3 mm 5 m/s 758 mmHg 81%
    22:00 +29°C° 0 mm 5 m/s 758 mmHg 81%
    23:00 +29°C° 0 mm 5 m/s 757 mmHg 81%

    Amanhã, 22 Maio, Quarta-feira

    Tempo Temperatura Precipitação Vento Pressão Humidade
    00:00 +29°C° 0 mm 4 m/s 757 mmHg 82%
    01:00 +29°C° 0 mm 4 m/s 757 mmHg 82%
    02:00 +29°C° 0 mm 4 m/s 757 mmHg 83%
    03:00 +29°C° 0 mm 4 m/s 756 mmHg 84%
    04:00 +29°C° 0.9 mm 3 m/s 757 mmHg 85%
    05:00 +29°C° 0.9 mm 3 m/s 757 mmHg 86%
    06:00 +29°C° 0.9 mm 3 m/s 758 mmHg 88%
    07:00 +30°C° 0.1 mm 3 m/s 758 mmHg 80%
    08:00 +31°C° 0.1 mm 3 m/s 759 mmHg 73%
    09:00 +34°C° 0.1 mm 3 m/s 759 mmHg 66%
    10:00 +35°C° 0 mm 3 m/s 759 mmHg 62%
    11:00 +36°C° 0 mm 4 m/s 758 mmHg 58%
    12:00 +37°C° 0 mm 4 m/s 758 mmHg 54%
    13:00 +36°C° 0 mm 4 m/s 757 mmHg 56%
    14:00 +36°C° 0 mm 4 m/s 757 mmHg 57%
    15:00 +35°C° 0 mm 4 m/s 756 mmHg 58%
    16:00 +34°C° 0 mm 4 m/s 756 mmHg 63%
    17:00 +33°C° 0 mm 4 m/s 757 mmHg 68%
    18:00 +32°C° 0 mm 4 m/s 757 mmHg 73%
    19:00 +32°C° 0 mm 5 m/s 757 mmHg 74%
    20:00 +32°C° 0 mm 5 m/s 758 mmHg 75%
    21:00 +30°C° 0 mm 5 m/s 758 mmHg 77%
    22:00 +30°C° 0 mm 5 m/s 758 mmHg 78%
    23:00 +30°C° 0 mm 5 m/s 758 mmHg 79%

    Depois de amanhã, 23 Maio, Quinta-feira

    Tempo Temperatura Precipitação Vento Pressão Humidade
    00:00 +30°C° 0 mm 5 m/s 758 mmHg 80%
    01:00 +30°C° 0 mm 4 m/s 757 mmHg 80%
    02:00 +30°C° 0 mm 4 m/s 757 mmHg 81%
    03:00 +29°C° 0 mm 3 m/s 756 mmHg 82%
    04:00 +29°C° 0 mm 3 m/s 757 mmHg 82%
    05:00 +29°C° 0 mm 3 m/s 757 mmHg 82%
    06:00 +29°C° 0 mm 2 m/s 758 mmHg 82%
    07:00 +31°C° 0.1 mm 2 m/s 758 mmHg 74%
    08:00 +34°C° 0.1 mm 2 m/s 758 mmHg 67%
    09:00 +36°C° 0.1 mm 2 m/s 759 mmHg 60%
    10:00 +35°C° 0.8 mm 2 m/s 758 mmHg 62%
    11:00 +35°C° 0.8 mm 3 m/s 758 mmHg 63%
    12:00 +35°C° 0.8 mm 3 m/s 758 mmHg 65%
    13:00 +35°C° 1.1 mm 4 m/s 757 mmHg 63%
    14:00 +35°C° 1.1 mm 4 m/s 756 mmHg 60%
    15:00 +36°C° 1.1 mm 5 m/s 756 mmHg 58%
    16:00 +34°C° 0 mm 5 m/s 756 mmHg 62%
    17:00 +33°C° 0 mm 4 m/s 756 mmHg 67%
    18:00 +32°C° 0 mm 4 m/s 756 mmHg 72%
    19:00 +32°C° 0 mm 4 m/s 757 mmHg 73%
    20:00 +30°C° 0 mm 4 m/s 758 mmHg 75%
    21:00 +30°C° 0 mm 5 m/s 758 mmHg 77%
    22:00 +30°C° 0 mm 5 m/s 758 mmHg 78%
    23:00 +30°C° 0 mm 5 m/s 758 mmHg 79%

    24 Maio, Sexta-feira

    Tempo Temperatura Precipitação Vento Pressão Humidade
    00:00 +30°C° 0 mm 5 m/s 757 mmHg 79%
    01:00 +30°C° 0 mm 4 m/s 757 mmHg 80%
    02:00 +29°C° 0 mm 4 m/s 757 mmHg 81%
    03:00 +29°C° 0 mm 4 m/s 756 mmHg 81%
    04:00 +29°C° 0 mm 4 m/s 757 mmHg 81%
    05:00 +29°C° 0 mm 4 m/s 757 mmHg 81%
    06:00 +29°C° 0 mm 4 m/s 757 mmHg 82%
    07:00 +32°C° 0 mm 4 m/s 758 mmHg 76%
    08:00 +33°C° 0 mm 4 m/s 758 mmHg 70%
    09:00 +34°C° 0 mm 4 m/s 758 mmHg 65%
    10:00 +34°C° 0 mm 4 m/s 758 mmHg 63%
    11:00 +35°C° 0 mm 4 m/s 758 mmHg 61%
    12:00 +35°C° 0 mm 5 m/s 757 mmHg 59%
    13:00 +36°C° 0 mm 5 m/s 757 mmHg 58%
    14:00 +36°C° 0 mm 5 m/s 756 mmHg 58%
    15:00 +36°C° 0 mm 5 m/s 755 mmHg 57%
    16:00 +34°C° 0 mm 5 m/s 756 mmHg 63%
    17:00 +33°C° 0 mm 5 m/s 756 mmHg 69%
    18:00 +32°C° 0 mm 4 m/s 756 mmHg 75%
    19:00 +32°C° 0 mm 5 m/s 756 mmHg 77%
    20:00 +30°C° 0 mm 5 m/s 756 mmHg 79%
    21:00 +30°C° 0 mm 5 m/s 757 mmHg 81%
    22:00 +30°C° 0 mm 5 m/s 757 mmHg 81%
    23:00 +30°C° 0 mm 4 m/s 757 mmHg 82%

    25 Maio, Sábado

    Tempo Temperatura Precipitação Vento Pressão Humidade
    00:00 +30°C° 0 mm 4 m/s 758 mmHg 83%
    01:00 +30°C° 0.8 mm 4 m/s 757 mmHg 82%
    02:00 +30°C° 0.8 mm 4 m/s 757 mmHg 82%
    03:00 +29°C° 0.8 mm 4 m/s 757 mmHg 81%
    04:00 +29°C° 0 mm 4 m/s 757 mmHg 82%
    05:00 +29°C° 0 mm 3 m/s 757 mmHg 82%
    06:00 +29°C° 0 mm 3 m/s 757 mmHg 82%
    07:00 +31°C° 0.1 mm 3 m/s 758 mmHg 77%
    08:00 +33°C° 0.1 mm 3 m/s 758 mmHg 71%
    09:00 +34°C° 0.1 mm 3 m/s 759 mmHg 65%
    10:00 +35°C° 0.2 mm 3 m/s 759 mmHg 62%
    11:00 +36°C° 0.2 mm 4 m/s 758 mmHg 59%
    12:00 +37°C° 0.2 mm 4 m/s 758 mmHg 56%
    13:00 +36°C° 0 mm 4 m/s 757 mmHg 57%
    14:00 +36°C° 0 mm 5 m/s 757 mmHg 58%
    15:00 +35°C° 0 mm 5 m/s 756 mmHg 59%
    16:00 +34°C° 0.1 mm 5 m/s 756 mmHg 65%
    17:00 +33°C° 0.1 mm 4 m/s 757 mmHg 70%
    18:00 +32°C° 0.1 mm 4 m/s 757 mmHg 75%
    19:00 +32°C° 0 mm 4 m/s 757 mmHg 76%
    20:00 +32°C° 0 mm 4 m/s 758 mmHg 77%
    21:00 +30°C° 0 mm 4 m/s 758 mmHg 78%
    22:00 +30°C° 0 mm 4 m/s 758 mmHg 79%
    23:00 +30°C° 0 mm 4 m/s 757 mmHg 79%

    26 Maio, Domingo

    Tempo Temperatura Precipitação Vento Pressão Humidade
    00:00 +30°C° 0 mm 4 m/s 757 mmHg 80%
    01:00 +30°C° 0 mm 4 m/s 757 mmHg 81%
    02:00 +30°C° 0 mm 4 m/s 756 mmHg 82%
    03:00 +29°C° 0 mm 4 m/s 756 mmHg 82%
    04:00 +29°C° 0.2 mm 3 m/s 756 mmHg 83%
    05:00 +29°C° 0.2 mm 3 m/s 757 mmHg 84%
    06:00 +29°C° 0.2 mm 2 m/s 757 mmHg 85%
    07:00 +31°C° 0.4 mm 2 m/s 758 mmHg 78%
    08:00 +32°C° 0.4 mm 2 m/s 758 mmHg 71%
    09:00 +34°C° 0.4 mm 2 m/s 758 mmHg 65%
    10:00 +35°C° 0 mm 3 m/s 758 mmHg 60%
    11:00 +36°C° 0 mm 3 m/s 757 mmHg 56%
    12:00 +37°C° 0 mm 3 m/s 757 mmHg 51%
    13:00 +37°C° 0.1 mm 4 m/s 756 mmHg 54%
    14:00 +36°C° 0.1 mm 4 m/s 756 mmHg 57%
    15:00 +35°C° 0.1 mm 4 m/s 756 mmHg 59%
    16:00 +34°C° 0 mm 4 m/s 756 mmHg 64%
    17:00 +33°C° 0 mm 4 m/s 756 mmHg 69%
    18:00 +32°C° 0 mm 5 m/s 757 mmHg 74%
    19:00 +32°C° 0 mm 5 m/s 757 mmHg 75%
    20:00 +30°C° 0 mm 4 m/s 757 mmHg 76%
    21:00 +30°C° 0 mm 4 m/s 758 mmHg 77%
    22:00 +30°C° 0 mm 5 m/s 757 mmHg 78%
    23:00 +30°C° 0 mm 5 m/s 757 mmHg 79%
    Mostrar mais